Theta_e
343 344 345 344 344 346 346 345 345 344 342 345 342 341 343 348 346 346 346 344 345 347 347 346 345 345 346 346 341 338 343 343 344
342 343 346 344 345 345 346 346 346 343 343 345 341 340 342 346 348 346 344 345 347 347 345 345 345 346 345 344 342 343 342 342 342
343 342 345 345 344 344 346 347 345 345 345 346 343 342 342 340 339 346 347 347 346 346 346 345 344 346 345 342 340 348 345 344 345
343 342 343 345 345 345 344 347 346 346 347 348 345 341 341 345 344 344 347 348 346 344 344 343 344 341 342 342 346 346 346 347 346
342 341 342 343 346 346 344 347 347 340 346 348 347 342 344 346 346 346 344 345 343 340 339 343 344 344 345 345 344 346 347 344 343
342 341 342 343 345 346 346 345 339 340 347 346 345 344 346 349 344 339 339 343 344 344 345 343 341 343 345 344 347 347 348 346 345
344 343 341 342 342 344 346 345 343 343 347 343 343 343 346 346 345 344 344 344 343 345 345 344 341 343 343 343 347 346 345 345 344
346 343 342 342 342 342 345 345 344 344 343 343 344 342 346 344 344 342 342 343 344 345 345 344 343 346 346 342 342 345 343 343 342
348 349 344 342 343 345 345 345 343 340 345 345 345 345 346 345 342 342 343 344 344 343 341 341 345 345 343 341 342 343 342 342 343
348 348 347 345 345 345 345 345 343 341 343 347 346 347 344 343 342 343 343 342 342 342 342 342 341 343 342 341 339 336 332 335 339
347 348 347 347 347 347 346 345 343 344 344 348 348 346 346 344 343 344 344 343 342 342 341 342 341 341 341 338 335 332 333 332 340
345 343 343 343 343 346 347 347 348 347 348 348 348 346 345 344 345 344 343 344 342 341 340 341 341 340 338 337 337 338 339 339 339
340 339 338 337 338 340 340 343 348 349 349 348 348 348 347 347 345 346 344 341 341 340 339 340 341 341 341 341 340 339 338 336 336
338 337 336 336 337 337 338 341 342 343 345 345 346 347 345 346 344 343 341 340 340 340 339 339 339 339 339 338 337 337 337 337 336
334 332 334 335 337 337 336 338 339 342 341 342 342 342 341 342 341 341 340 339 338 338 338 338 338 338 337 336 334 331 330 330 332
331 331 334 332 333 334 335 336 337 338 338 338 338 338 338 338 338 338 338 337 336 335 335 336 336 336 335 331 329 327 327 322 319
332 330 329 331 332 332 330 331 332 332 333 333 332 331 328 327 328 329 330 329 327 327 329 331 331 329 327 325 323 322 318 315 309
329 329 329 327 325 325 324 322 319 317 314 313 312 312 312 312 313 312 311 311 311 313 315 315 316 316 319 319 319 318 317 316 312
330 328 328 328 326 325 317 314 312 312 312 312 311 310 310 309 310 310 310 310 310 311 311 314 316 316 316 317 318 317 317 316 309
326 327 325 325 325 325 325 322 315 314 314 313 313 313 314 314 313 314 314 313 313 313 312 311 309 310 309 306 306 310 312 310 305
Wind_Speed
31 23 24 28 23 35 35 32 28 25 22 23 22 23 20 16 15 13 11 10 12 12 14 12 18 18 17 11 9 10 9 7 5
28 28 20 25 21 24 35 35 31 26 21 22 23 22 20 20 15 15 15 12 10 6 9 10 12 15 15 12 11 11 9 6 8
29 35 25 24 29 29 30 35 34 29 24 22 22 23 21 21 19 18 16 13 10 7 6 7 10 12 9 9 13 11 10 9 8
33 38 34 25 28 30 30 34 32 29 27 27 25 25 22 21 19 18 17 13 11 9 9 8 11 13 12 9 13 11 11 13 15
27 37 38 27 28 26 35 32 37 25 30 30 28 23 22 21 19 19 18 17 13 11 10 10 7 6 10 12 14 13 12 13 15
22 25 30 33 29 28 29 29 18 31 30 28 25 21 22 22 17 20 19 16 14 12 11 10 10 9 8 10 15 15 14 13 11
16 21 28 31 31 30 29 28 27 37 36 24 28 24 26 24 21 20 20 18 18 16 14 11 10 11 11 10 10 13 14 13 11
19 26 23 31 28 31 34 33 29 35 36 32 28 30 27 22 20 16 18 21 19 15 16 18 18 16 15 13 11 9 10 8 7
21 21 33 34 35 33 29 30 24 28 32 27 30 31 31 24 19 14 16 19 17 15 15 17 18 19 17 13 12 10 8 8 7
26 25 24 25 29 31 31 31 22 30 34 29 37 34 22 22 17 16 16 17 15 13 13 14 17 20 19 16 14 11 7 5 9
19 21 20 20 19 25 30 33 20 35 43 29 25 20 23 22 19 17 14 11 11 11 10 9 9 11 12 12 12 10 15 14 11
13 10 8 9 13 18 23 20 29 28 29 23 19 18 18 18 17 16 13 12 11 9 9 8 8 9 11 11 9 8 8 8 8
16 12 7 4 8 11 11 13 16 19 24 21 18 17 16 19 14 16 12 10 9 9 9 8 8 8 8 8 7 6 7 8 10
11 8 4 4 8 8 8 12 13 14 13 15 15 17 17 19 13 14 14 11 11 10 10 11 11 11 10 9 9 11 11 12 12
7 5 8 8 9 10 9 8 8 9 10 11 13 13 13 15 16 16 14 12 10 11 11 11 11 10 9 7 6 5 4 7 10
9 9 9 8 7 8 10 11 9 9 9 9 10 11 12 11 11 11 12 13 13 12 12 11 10 9 10 9 7 6 6 5 6
8 9 10 5 5 7 7 8 8 7 7 7 8 8 8 8 8 8 9 10 10 10 12 13 13 12 12 11 9 7 6 5 3
6 7 7 8 4 4 5 6 6 7 7 7 7 7 6 5 5 5 6 6 6 7 7 8 8 9 10 10 10 10 8 6 8
11 8 5 6 5 3 1 3 6 6 5 4 3 3 3 3 3 5 6 7 7 7 8 9 9 10 11 12 12 12 12 13 13
5 5 2 1 3 4 4 2 2 4 5 5 4 4 4 3 4 4 4 4 3 4 5 5 6 8 10 13 18 21 19 16 14
Wind_Direction
194 192 180 178 178 197 200 199 195 196 198 205 203 202 202 205 207 204 209 208 194 205 203 204 212 208 221 220 208 207 213 218 252
198 198 189 196 184 188 201 204 198 205 202 209 206 203 198 196 197 206 205 201 205 205 201 223 207 216 222 225 203 197 221 225 248
186 202 196 196 200 193 196 205 200 205 215 215 212 207 206 200 199 200 208 208 203 198 203 205 206 202 209 224 205 203 216 231 252
186 191 200 194 199 201 204 205 202 207 209 224 217 208 205 198 198 203 216 221 222 211 213 217 215 229 205 208 197 216 228 247 255
194 192 193 204 194 192 200 199 204 231 213 216 219 210 206 204 204 217 217 225 227 232 224 213 201 198 207 212 213 225 234 244 246
191 177 185 202 199 201 201 206 220 214 209 209 215 218 215 210 212 212 210 216 225 223 220 218 210 211 217 225 225 233 240 245 241
199 199 198 207 210 213 210 221 212 226 213 220 219 227 220 222 217 208 214 223 227 231 232 230 235 240 229 233 233 240 249 252 258
205 214 207 211 224 225 213 206 203 213 222 239 245 223 215 204 211 218 232 231 221 219 229 243 244 232 234 239 240 252 245 232 247
179 195 208 209 208 207 204 209 225 236 232 241 237 224 215 202 220 232 225 221 233 241 243 246 240 243 245 245 247 249 254 244 235
153 162 175 194 211 219 212 223 243 205 224 232 225 223 207 217 219 217 223 227 221 232 240 241 242 242 241 243 240 240 231 282 250
146 146 148 154 182 200 202 211 199 208 231 218 206 210 211 209 206 218 220 206 203 213 228 222 225 231 231 234 236 234 233 244 250
130 125 147 176 187 178 181 186 206 206 209 204 190 187 187 197 204 210 203 199 209 209 209 210 211 221 230 238 239 243 246 249 245
113 97 104 134 178 177 191 190 173 194 208 190 189 192 206 195 200 203 216 203 199 207 214 212 210 211 217 222 224 239 247 246 252
92 83 80 107 146 154 154 167 177 194 190 196 199 189 211 190 197 212 209 204 210 221 222 217 211 225 231 242 265 266 256 248 249
56 51 116 129 142 137 141 149 156 169 176 174 180 187 212 203 195 198 197 206 211 208 213 212 215 217 238 247 247 254 249 239 235
100 92 115 131 130 137 143 139 146 160 164 168 175 181 184 187 197 197 204 206 200 204 208 209 214 227 242 249 239 238 261 279 255
102 56 60 84 127 146 146 138 143 154 158 164 167 169 175 181 188 206 214 218 209 207 215 219 218 226 240 241 248 253 280 285 283
133 113 78 69 103 140 142 139 138 143 149 157 158 158 161 181 188 200 212 218 226 222 228 229 234 238 247 261 263 264 277 290 302
161 139 112 116 58 36 141 172 150 159 161 163 170 165 156 185 206 209 224 231 236 245 248 243 241 249 257 262 266 267 274 288 297
138 174 113 326 339 7 32 8 272 214 209 206 200 192 189 192 218 243 255 246 243 285 282 271 264 276 276 266 263 263 268 277 280